FW9262 Weather Reports


time (UTC)temp
F
wind
direction
speed
knots
gust
knots
rain 1hr
in
rain 24hr
in
rain mn
in
humidity
%
barometer
mb
20260905044207 69 337 0.0 0.0 0.00 0.00 0.00 90 1016.0
20260905043706 68 341 0.0 0.0 0.00 0.00 0.00 89 1015.6
20260905043200 69 340 0.0 0.0 0.00 0.00 0.00 89 1015.6
20260905042655 69 337 0.0 0.0 0.00 0.00 0.00 89 1015.6
20260905042154 69 340 0.0 0.0 0.00 0.00 0.00 88 1015.3
20260905041650 69 343 0.0 0.0 0.00 0.00 0.00 88 1015.6
20260905041145 69 347 0.0 0.0 0.00 0.00 0.00 88 1015.3
20260905040640 69 336 0.0 0.0 0.00 0.00 0.00 88 1015.6
20260905040139 69 333 0.0 0.0 0.00 0.00 0.00 88 1015.3
20260905035634 70 338 0.0 0.0 0.00 0.00 0.00 88 1015.3
20260905035131 70 331 0.0 0.9 0.00 0.00 0.00 88 1015.3
20260905034626 70 315 0.0 1.7 0.00 0.00 0.00 87 1014.9
20260905034126 70 287 0.9 1.7 0.00 0.00 0.00 87 1014.9
20260905033620 70 345 0.0 0.9 0.00 0.00 0.00 86 1015.3
20260905033116 70 327 0.0 1.7 0.00 0.00 0.00 86 1014.9
20260905032616 70 329 0.0 0.9 0.00 0.00 0.00 86 1014.9
20260905032115 70 340 0.0 0.9 0.00 0.00 0.00 86 1014.9
20260905031611 70 333 0.0 0.9 0.00 0.00 0.00 85 1014.9
20260905031111 70 321 0.9 1.7 0.00 0.00 0.00 85 1014.9
20260905030606 70 320 0.0 0.9 0.00 0.00 0.00 85 1014.6
20260905025557 71 290 0.9 2.6 0.00 0.00 0.00 84 1014.9
20260905025053 70 303 0.9 2.6 0.00 0.00 0.00 83 1014.9
20260905024548 70 43 0.9 1.7 0.00 0.00 0.00 83 1014.9
20260905024043 70 291 0.9 1.7 0.00 0.00 0.00 83 1014.9
20260905023538 71 300 1.7 2.6 0.00 0.00 0.00 83 1014.6
20260905023033 71 281 0.9 2.6 0.00 0.00 0.00 82 1014.6
20260905022532 71 341 0.0 1.7 0.00 0.00 0.00 82 1014.6
20260905022028 71 329 0.9 0.9 0.00 0.00 0.00 82 1014.6
20260905021527 71 294 1.7 1.7 0.00 0.00 0.00 82 1014.9
20260905021023 71 301 2.6 3.5 0.00 0.00 0.00 81 1014.9
20260905020522 71 342 0.0 1.7 0.00 0.00 0.00 81 1014.9
20260905020018 71 268 1.7 2.6 0.00 0.00 0.00 81 1014.9
20260905015515 72 316 0.9 2.6 0.00 0.00 0.00 80 1014.9
20260905015016 72 297 0.9 3.5 0.00 0.00 0.00 80 1014.9
20260905014510 72 296 1.7 2.6 0.00 0.00 0.00 79 1014.9
20260905014006 73 265 2.6 3.5 0.00 0.00 0.00 78 1014.9
20260905013502 73 321 0.9 0.9 0.00 0.00 0.00 77 1014.9
20260905012957 73 333 1.7 1.7 0.00 0.00 0.00 76 1014.9
20260905012452 73 305 0.9 2.6 0.00 0.00 0.00 77 1015.3
20260905011949 73 279 1.7 3.5 0.00 0.00 0.00 77 1014.9
20260905011444 73 212 1.7 3.5 0.00 0.00 0.00 77 1015.3
20260905010940 73 283 1.7 5.2 0.00 0.00 0.00 77 1014.9
20260905010435 73 335 1.7 3.5 0.00 0.00 0.00 77 1014.9
20260905005930 73 210 1.7 5.2 0.00 0.00 0.00 77 1014.9
20260905005426 74 305 1.7 5.2 0.00 0.00 0.00 75 1015.3
20260905004926 74 247 1.7 5.2 0.00 0.00 0.00 74 1015.3
20260905004421 75 203 1.7 1.7 0.00 0.00 0.00 73 1015.3
20260905003917 75 268 1.7 5.2 0.00 0.00 0.00 73 1015.3
20260905003412 75 257 2.6 6.1 0.00 0.00 0.00 73 1015.3
20260905002908 75 310 0.0 3.5 0.00 0.00 0.00 74 1015.3
20260905002408 75 258 3.5 5.2 0.00 0.00 0.00 72 1015.3
20260905001907 76 152 2.6 3.5 0.00 0.00 0.00 70 1015.3
20260905001402 77 291 1.7 3.5 0.00 0.00 0.00 69 1015.3
20260905000857 78 294 1.7 3.5 0.00 0.00 0.00 68 1015.3
20260905000355 77 336 0.9 2.6 0.00 0.00 0.00 69 1014.9
20260904235848 77 297 1.7 5.2 0.00 0.00 0.00 70 1014.9
20260904235343 77 291 2.6 5.2 0.00 0.00 0.00 70 1014.9
20260904234838 77 275 1.7 3.5 0.00 0.00 0.00 69 1014.9
20260904234333 77 320 1.7 3.5 0.00 0.00 0.00 68 1014.9
20260904233829 78 200 0.9 2.6 0.00 0.00 0.00 68 1015.3
20260904233324 77 344 0.0 2.6 0.00 0.00 0.00 68 1015.3
20260904232821 77 296 3.5 6.1 0.00 0.00 0.00 69 1014.9
20260904232317 77 288 1.7 6.1 0.00 0.00 0.00 69 1014.9
20260904231813 79 290 2.6 2.6 0.00 0.00 0.00 66 1015.3
20260904231307 78 325 0.9 2.6 0.00 0.00 0.00 68 1014.9
20260904230803 78 203 3.5 6.1 0.00 0.00 0.00 67 1015.3
20260904230301 78 287 1.7 6.1 0.00 0.00 0.00 68 1015.3
20260904225756 78 263 0.9 6.1 0.00 0.00 0.00 67 1015.3
20260904225249 78 218 2.6 3.5 0.00 0.00 0.00 68 1015.3
20260904224749 77 336 1.7 5.2 0.00 0.00 0.00 69 1015.3
20260904224244 78 342 2.6 6.1 0.00 0.00 0.00 68 1015.3
20260904223743 77 253 1.7 2.6 0.00 0.00 0.00 69 1015.6
20260904223239 77 235 2.6 5.2 0.00 0.00 0.00 68 1015.6
20260904222735 78 213 2.6 3.5 0.00 0.00 0.00 68 1015.3
20260904222230 78 292 2.6 6.1 0.00 0.00 0.00 67 1015.3
20260904221729 78 233 1.7 3.5 0.00 0.00 0.00 68 1015.6
20260904221224 78 177 3.5 6.1 0.00 0.00 0.00 67 1015.6
20260904220725 77 303 0.9 3.5 0.00 0.00 0.00 67 1015.6
20260904220219 78 327 2.6 3.5 0.00 0.00 0.00 67 1015.6
20260904215719 78 245 1.7 5.2 0.00 0.00 0.00 67 1015.6
20260904215215 79 228 2.6 5.2 0.00 0.00 0.00 65 1015.6
20260904214710 78 243 2.6 3.5 0.00 0.00 0.00 66 1015.6
20260904214206 78 277 2.6 3.5 0.00 0.00 0.00 65 1015.3
20260904213703 78 285 2.6 5.2 0.00 0.00 0.00 65 1015.6
20260904213155 78 257 1.7 5.2 0.00 0.00 0.00 64 1015.6
20260904212655 78 240 2.6 6.1 0.00 0.00 0.00 65 1015.6
20260904212150 78 247 2.6 6.1 0.00 0.00 0.00 64 1016.0
20260904211644 78 247 2.6 3.5 0.00 0.00 0.00 64 1016.0
20260904211139 78 240 1.7 5.2 0.00 0.00 0.00 66 1016.0
20260904210639 78 300 3.5 6.1 0.00 0.00 0.00 66 1016.0
20260904210135 77 309 1.7 6.1 0.00 0.00 0.00 67 1015.6
20260904205631 78 351 3.5 3.5 0.00 0.00 0.00 65 1016.0
20260904205127 78 234 3.5 5.2 0.00 0.00 0.00 65 1016.0
20260904204622 78 327 1.7 7.0 0.00 0.00 0.00 67 1016.0
20260904204119 78 305 1.7 5.2 0.00 0.00 0.00 66 1015.6
20260904203614 79 301 0.9 3.5 0.00 0.00 0.00 66 1015.6
20260904203111 78 188 1.7 1.7 0.00 0.00 0.00 67 1016.0
20260904202606 77 246 2.6 3.5 0.00 0.00 0.00 67 1016.0
20260904202103 77 250 4.3 7.0 0.00 0.00 0.00 68 1016.0
20260904201602 77 235 3.5 6.1 0.00 0.00 0.00 67 1016.0
20260904201057 78 289 1.7 5.2 0.00 0.00 0.00 66 1016.0
20260904200556 78 301 3.5 7.0 0.00 0.00 0.00 67 1016.0
20260904200051 78 315 1.7 6.1 0.00 0.00 0.00 65 1016.0
20260904195550 77 330 0.9 6.1 0.00 0.00 0.00 66 1016.3
20260904195044 78 305 3.5 5.2 0.00 0.00 0.00 65 1016.0
20260904194538 79 272 2.6 7.0 0.00 0.00 0.00 64 1016.0
20260904194033 78 299 2.6 3.5 0.00 0.00 0.00 65 1016.0
20260904193528 77 229 1.7 6.1 0.00 0.00 0.00 66 1016.3
20260904193025 78 172 2.6 5.2 0.00 0.00 0.00 66 1016.3
20260904192524 78 281 0.9 1.7 0.00 0.00 0.00 65 1016.3
20260904192020 78 21 0.9 3.5 0.00 0.00 0.00 64 1016.3
20260904191516 78 283 0.9 5.2 0.00 0.00 0.00 64 1016.3
20260904191013 78 214 1.7 3.5 0.00 0.00 0.00 64 1016.6
20260904190508 79 293 0.9 1.7 0.00 0.00 0.00 63 1016.6
20260904190004 81 273 3.5 5.2 0.00 0.00 0.00 59 1016.6
20260904185500 79 315 2.6 3.5 0.00 0.00 0.00 63 1017.0
20260904184955 78 273 0.9 2.6 0.00 0.00 0.00 62 1016.6
20260904184454 79 262 3.5 5.2 0.00 0.00 0.00 59 1016.6
20260904183950 79 324 1.7 2.6 0.00 0.00 0.00 61 1016.6
20260904183445 80 251 3.5 5.2 0.00 0.00 0.00 59 1017.0
20260904182940 80 348 1.7 3.5 0.00 0.00 0.00 59 1017.0
20260904182436 81 318 0.0 1.7 0.00 0.00 0.00 60 1016.6
20260904181936 80 136 1.7 2.6 0.00 0.00 0.00 59 1016.6
20260904181431 78 341 0.9 2.6 0.00 0.00 0.00 63 1016.6
20260904180926 78 308 1.7 1.7 0.00 0.00 0.00 63 1017.0
20260904180421 77 210 0.9 2.6 0.00 0.00 0.00 63 1017.0
20260904175921 76 248 1.7 2.6 0.00 0.00 0.00 65 1017.0
20260904175419 76 282 0.9 3.5 0.00 0.00 0.00 66 1017.0
20260904174914 76 260 1.7 5.2 0.00 0.00 0.00 65 1017.0
20260904174409 76 211 0.9 2.6 0.00 0.00 0.00 67 1017.0
20260904173906 76 263 3.5 3.5 0.00 0.00 0.00 66 1017.0
20260904173401 75 329 1.7 2.6 0.00 0.00 0.00 69 1017.0
20260904172856 74 245 1.7 1.7 0.00 0.00 0.00 70 1016.6
20260904172356 74 274 1.7 2.6 0.00 0.00 0.00 70 1017.0
20260904171851 75 281 2.6 3.5 0.00 0.00 0.00 69 1016.6
20260904171346 77 267 0.9 5.2 0.00 0.00 0.00 68 1016.6
20260904170842 77 271 0.0 2.6 0.00 0.00 0.00 68 1016.6
20260904170338 77 260 1.7 5.2 0.00 0.00 0.00 67 1016.6
20260904165833 76 342 0.0 0.0 0.00 0.00 0.00 66 1016.6
20260904165331 74 345 0.0 0.9 0.00 0.00 0.00 69 1016.6
20260904164827 76 338 0.9 2.6 0.00 0.00 0.00 67 1016.3
20260904164321 76 295 0.9 1.7 0.00 0.00 0.00 66 1016.6
20260904163817 76 272 0.9 2.6 0.00 0.00 0.00 66 1016.6
20260904163312 76 86 1.7 2.6 0.00 0.00 0.00 64 1016.6
20260904162811 76 76 0.9 1.7 0.00 0.00 0.00 66 1016.3
20260904162307 75 4 0.9 1.7 0.00 0.00 0.00 66 1016.3
20260904161802 74 347 0.0 1.7 0.00 0.00 0.00 68 1016.3
20260904161302 72 11 0.0 1.7 0.00 0.00 0.00 73 1016.3
20260904160757 73 201 0.9 1.7 0.00 0.00 0.00 72 1016.3
20260904160252 73 351 0.0 0.0 0.00 0.00 0.00 73 1016.3
20260904155747 73 350 0.9 2.6 0.00 0.00 0.00 73 1016.3
20260904155247 74 1 0.9 1.7 0.00 0.00 0.00 72 1016.3
20260904154745 73 346 0.0 2.6 0.00 0.00 0.00 74 1016.3
20260904154240 74 340 0.9 1.7 0.00 0.00 0.00 72 1016.3
20260904153736 75 0 0.9 2.6 0.00 0.00 0.00 73 1016.0
20260904153231 75 67 1.7 1.7 0.00 0.00 0.00 72 1016.3
20260904152727 74 352 0.9 1.7 0.00 0.00 0.00 72 1016.3
20260904152222 73 1 0.9 2.6 0.00 0.00 0.00 75 1016.3
20260904151717 72 46 0.9 1.7 0.00 0.00 0.00 77 1016.3
20260904151216 72 48 0.0 0.9 0.00 0.00 0.00 76 1016.3
20260904150712 72 63 0.9 2.6 0.00 0.00 0.00 76 1016.3
20260904150207 72 12 0.0 1.7 0.00 0.00 0.00 76 1016.0
20260904145705 72 32 0.9 1.7 0.00 0.00 0.00 76 1016.3
20260904145201 72 345 0.0 0.9 0.00 0.00 0.00 77 1016.0
20260904144656 71 8 1.7 1.7 0.00 0.00 0.00 78 1016.0
20260904144152 70 356 0.0 0.0 0.00 0.00 0.00 80 1016.0
20260904143647 70 8 0.0 0.0 0.00 0.00 0.00 81 1016.0
20260904143144 69 358 0.0 0.0 0.00 0.00 0.00 81 1016.0
20260904142640 69 358 0.0 0.9 0.00 0.00 0.00 82 1016.0
20260904142136 68 347 0.0 0.9 0.00 0.00 0.00 84 1015.6
20260904141630 68 15 0.0 0.0 0.00 0.00 0.00 88 1015.6
20260904141126 67 349 0.0 0.0 0.00 0.00 0.00 90 1015.6
20260904140621 66 350 0.0 0.0 0.00 0.00 0.00 92 1015.6
20260904140121 65 358 0.0 0.0 0.00 0.00 0.00 92 1015.6
20260904135615 64 346 0.0 0.0 0.00 0.00 0.00 92 1015.6
20260904135111 64 344 0.0 0.0 0.00 0.00 0.00 92 1015.3
20260904134606 64 348 0.0 0.0 0.00 0.00 0.00 92 1015.3
20260904134100 64 345 0.0 0.0 0.00 0.00 0.00 92 1015.3
20260904133555 63 343 0.0 0.0 0.00 0.00 0.00 92 1015.3
20260904133051 63 343 0.0 0.0 0.00 0.00 0.00 92 1015.3
20260904132550 63 337 0.0 0.0 0.00 0.00 0.00 92 1014.9
20260904132045 63 338 0.0 0.0 0.00 0.00 0.00 92 1015.3
20260904131545 63 337 0.0 0.0 0.00 0.00 0.00 92 1015.3
20260904131041 63 0 0.0 0.9 0.00 0.00 0.00 92 1015.3
20260904130540 63 343 0.0 0.0 0.00 0.00 0.00 92 1014.9
20260904130035 63 342 0.0 0.0 0.00 0.00 0.00 92 1015.3
20260904125532 63 342 0.0 0.0 0.00 0.00 0.00 92 1015.3
20260904125026 63 334 0.0 0.0 0.00 0.00 0.00 92 1015.3
20260904124522 63 330 0.0 0.0 0.00 0.00 0.00 92 1015.3
20260904124017 63 334 0.0 0.0 0.00 0.00 0.00 92 1015.3
20260904123517 63 334 0.0 0.0 0.00 0.00 0.00 92 1014.9
20260904123013 63 338 0.0 0.0 0.00 0.00 0.00 92 1015.3
20260904122507 63 339 0.0 0.0 0.00 0.00 0.00 92 1014.9
20260904122002 63 339 0.0 0.0 0.00 0.00 0.00 92 1014.9
20260904121458 63 338 0.0 0.0 0.00 0.00 0.00 92 1014.9
20260904120954 63 341 0.0 0.0 0.00 0.00 0.00 92 1014.9
20260904120449 63 341 0.0 0.0 0.00 0.00 0.00 92 1014.9
20260904115944 63 342 0.0 0.0 0.00 0.00 0.00 92 1014.9
20260904115440 63 334 0.0 0.0 0.00 0.00 0.00 92 1015.3
20260904114934 63 340 0.0 0.0 0.00 0.00 0.00 92 1014.9
20260904114434 63 337 0.0 0.0 0.00 0.00 0.00 92 1014.9
20260904113930 63 344 0.0 0.0 0.00 0.00 0.00 92 1014.9
20260904113428 63 344 0.0 0.0 0.00 0.00 0.00 92 1015.3
20260904112928 63 342 0.0 0.0 0.00 0.00 0.00 92 1014.9
20260904112424 62 341 0.0 0.0 0.00 0.00 0.00 91 1014.9
20260904111920 62 341 0.0 0.0 0.00 0.00 0.00 91 1014.9
20260904111414 62 343 0.0 0.0 0.00 0.00 0.00 91 1014.9
20260904110911 62 344 0.0 0.0 0.00 0.00 0.00 91 1014.9
20260904110409 63 340 0.0 0.0 0.00 0.00 0.00 91 1014.9
20260904105905 63 337 0.0 0.0 0.00 0.00 0.00 91 1014.9
20260904105400 63 333 0.0 0.0 0.00 0.00 0.00 91 1014.9
20260904104855 63 330 0.0 0.0 0.00 0.00 0.00 91 1014.9
20260904104349 63 337 0.0 0.0 0.00 0.00 0.00 91 1015.3
20260904103846 63 343 0.0 0.9 0.00 0.00 0.00 91 1014.9
20260904103341 63 340 0.0 0.9 0.00 0.00 0.00 91 1014.9
20260904102837 63 339 0.0 0.0 0.00 0.00 0.00 91 1014.9
20260904102332 63 335 0.0 0.0 0.00 0.00 0.00 91 1014.9
20260904101828 63 340 0.0 0.0 0.00 0.00 0.00 91 1014.9
20260904101324 63 354 0.0 0.0 0.00 0.00 0.00 91 1014.9
20260904100820 63 344 0.0 0.0 0.00 0.00 0.00 91 1014.9
20260904100315 64 342 0.0 0.0 0.00 0.00 0.00 91 1015.3
20260904095810 64 344 0.0 0.9 0.00 0.00 0.00 91 1014.9
20260904095306 64 352 0.0 0.0 0.00 0.00 0.00 91 1014.9
20260904094800 64 348 0.0 0.0 0.00 0.00 0.00 91 1014.9
20260904094254 64 343 0.0 0.0 0.00 0.00 0.00 91 1014.9
20260904093750 64 342 0.0 0.0 0.00 0.00 0.00 91 1014.9
20260904093245 64 344 0.0 0.0 0.00 0.00 0.00 91 1014.9
20260904092740 64 340 0.0 0.0 0.00 0.00 0.00 91 1014.9
20260904092237 64 26 0.0 0.0 0.00 0.00 0.00 91 1014.9
20260904091733 64 340 0.0 0.0 0.00 0.00 0.00 91 1014.9
20260904091227 63 345 0.0 0.0 0.00 0.00 0.00 91 1014.9
20260904090723 64 343 0.0 0.0 0.00 0.00 0.00 90 1014.6
20260904090218 64 340 0.0 0.0 0.00 0.00 0.00 90 1014.9
20260904085713 64 336 0.0 0.9 0.00 0.00 0.00 90 1014.9
20260904085208 64 338 0.0 0.0 0.00 0.00 0.00 90 1014.9
20260904084703 64 336 0.0 0.0 0.00 0.00 0.00 90 1014.9
20260904084159 64 343 0.0 0.0 0.00 0.00 0.00 90 1014.9
20260904083655 64 341 0.0 0.0 0.00 0.00 0.00 90 1014.9
20260904083151 64 342 0.0 0.0 0.00 0.00 0.00 90 1014.9
20260904082646 64 344 0.0 0.0 0.00 0.00 0.00 90 1015.3
20260904082141 64 344 0.0 0.0 0.00 0.00 0.00 90 1014.9
20260904081637 64 336 0.0 0.0 0.00 0.00 0.00 90 1014.9
20260904081132 64 334 0.0 0.0 0.00 0.00 0.00 90 1014.9
20260904080627 65 343 0.0 0.0 0.00 0.00 0.00 90 1014.9
20260904080123 65 332 0.0 0.0 0.00 0.00 0.00 90 1014.9
20260904075620 65 337 0.0 0.0 0.00 0.00 0.00 90 1015.6
20260904075119 65 344 0.0 0.0 0.00 0.00 0.00 90 1015.6
20260904074618 65 344 0.0 0.0 0.00 0.00 0.00 89 1015.3
20260904074113 65 342 0.0 0.0 0.00 0.00 0.00 90 1015.3
20260904073608 65 347 0.0 0.0 0.00 0.00 0.00 90 1015.3
20260904073105 66 347 0.0 0.0 0.00 0.00 0.00 89 1015.3
20260904072600 65 350 0.0 0.0 0.00 0.00 0.00 89 1015.3
20260904072055 65 342 0.0 0.0 0.00 0.00 0.00 89 1015.3
20260904071551 65 348 0.0 0.0 0.00 0.00 0.00 89 1015.3
20260904071046 66 346 0.0 0.0 0.00 0.00 0.00 89 1015.3
20260904070544 66 350 0.0 0.0 0.00 0.00 0.00 89 1014.9
20260904070040 66 352 0.0 0.0 0.00 0.00 0.00 89 1014.9
20260904065534 66 352 0.0 0.0 0.00 0.00 0.00 89 1015.3
20260904065031 65 348 0.0 0.0 0.00 0.00 0.00 89 1015.3
20260904064527 66 344 0.0 0.0 0.00 0.00 0.00 89 1015.3
20260904064021 66 343 0.0 0.0 0.00 0.00 0.00 89 1014.9
20260904063518 66 343 0.0 0.0 0.00 0.00 0.00 89 1014.9
20260904063018 66 347 0.0 0.0 0.00 0.00 0.00 89 1014.9
20260904062514 66 346 0.0 0.0 0.00 0.00 0.00 88 1014.9
20260904062009 66 342 0.0 0.0 0.00 0.00 0.00 88 1014.9
20260904061505 66 348 0.0 0.0 0.00 0.00 0.00 88 1014.9
20260904061001 66 341 0.0 0.0 0.00 0.00 0.00 88 1014.9
20260904060457 66 345 0.0 0.0 0.00 0.00 0.00 88 1014.9
20260904055953 66 346 0.0 0.0 0.00 0.00 0.00 87 1014.9
20260904055448 66 347 0.0 0.0 0.00 0.00 0.00 87 1014.9
20260904054943 66 351 0.0 0.0 0.00 0.00 0.00 87 1014.9
20260904054439 67 343 0.0 0.0 0.00 0.00 0.00 87 1014.6
20260904053935 67 348 0.0 0.0 0.00 0.00 0.00 86 1014.9
20260904053434 67 347 0.0 0.0 0.00 0.00 0.00 86 1014.9
20260904052930 67 345 0.0 0.0 0.00 0.00 0.00 86 1014.9
20260904052426 67 339 0.0 0.0 0.00 0.00 0.00 85 1014.9
20260904051922 68 338 0.0 0.0 0.00 0.00 0.00 85 1014.9
20260904051418 68 340 0.0 0.0 0.00 0.00 0.00 85 1014.9
20260904050912 68 327 0.0 0.9 0.00 0.00 0.00 84 1015.3
20260904050409 68 328 0.0 0.9 0.00 0.00 0.00 84 1014.9
20260904045908 68 329 0.0 0.0 0.00 0.00 0.00 83 1014.9
20260904045404 68 333 0.0 0.0 0.00 0.00 0.00 83 1014.9
20260904044903 68 334 0.9 0.9 0.00 0.00 0.00 83 1014.9
20260904044400 68 334 0.0 0.9 0.00 0.00 0.00 82 1014.9